DW4267 Weather Reports


time (UTC)temp
F
wind
direction
speed
knots
gust
knots
rain 1hr
in
rain 24hr
in
rain mn
in
humidity
%
barometer
mb
20260507143157 70 41 0.0 0.0 0.00 0.00 0.00 33 1012.0
20260507142424 69 41 0.0 0.0 0.00 0.00 0.00 33 1012.0
20260507141920 68 44 0.0 0.0 0.00 0.00 0.00 34 1011.9
20260507141633 67 128 0.0 0.0 0.00 0.00 0.00 35 1011.8
20260507140908 66 128 0.0 0.0 0.00 0.00 0.00 36 1011.8
20260507140342 66 128 0.0 0.0 0.00 0.00 0.00 34 1011.7
20260507135824 66 128 0.0 0.0 0.00 0.00 0.00 36 1011.6
20260507135316 66 198 0.0 0.0 0.00 0.00 0.00 35 1011.6
20260507134819 66 173 0.0 0.0 0.00 0.00 0.00 36 1011.6
20260507134306 66 173 0.0 0.0 0.00 0.00 0.00 34 1011.4
20260507133803 66 173 0.0 0.0 0.00 0.00 0.00 35 1011.4
20260507133300 66 173 0.0 1.7 0.00 0.00 0.00 33 1011.3
20260507133019 66 165 0.0 1.7 0.00 0.00 0.00 33 1011.4
20260507132551 67 5 0.0 0.9 0.00 0.00 0.00 31 1011.4
20260507132426 67 355 0.0 1.7 0.00 0.00 0.00 32 1011.4
20260507132420 67 5 0.0 1.7 0.00 0.00 0.00 31 1011.4
20260507131004 67 90 0.9 2.6 0.00 0.00 0.00 30 1011.4
20260507130427 68 163 0.9 2.6 0.00 0.00 0.00 30 1011.4
20260507125657 68 265 0.9 1.7 0.00 0.00 0.00 29 1011.4
20260507125158 68 325 0.9 2.6 0.00 0.00 0.00 29 1011.4
20260507124929 68 268 0.9 2.6 0.00 0.00 0.00 29 1011.4
20260507124146 68 65 1.7 6.1 0.00 0.00 0.00 29 1011.4
20260507123633 68 75 3.5 8.7 0.00 0.00 0.00 28 1011.3
20260507123128 67 67 2.6 8.7 0.00 0.00 0.00 28 1011.3
20260507122855 67 70 1.7 6.1 0.00 0.00 0.00 29 1011.3
20260507122127 67 78 0.9 4.3 0.00 0.00 0.00 28 1011.3
20260507121623 67 70 0.0 1.7 0.00 0.00 0.00 30 1011.2
20260507121341 67 244 0.0 1.7 0.00 0.00 0.00 31 1011.2
20260507121333 68 78 0.9 1.7 0.00 0.00 0.00 29 1011.3
20260507121329 67 165 0.0 1.7 0.00 0.00 0.00 29 1011.2
20260507121321 68 78 0.9 1.7 0.00 0.00 0.00 28 1011.3
20260507121316 68 78 0.0 1.7 0.00 0.00 0.00 28 1011.1
20260507114616 68 180 0.0 3.5 0.00 0.00 0.00 28 1011.3
20260507114110 69 186 0.0 3.5 0.00 0.00 0.00 27 1011.3
20260507113607 69 304 0.0 1.7 0.00 0.00 0.00 26 1011.3
20260507113106 69 207 0.9 1.7 0.00 0.00 0.00 28 1011.3
20260507112555 69 207 0.9 1.7 0.00 0.00 0.00 27 1011.4
20260507112320 69 50 0.0 1.7 0.00 0.00 0.00 27 1011.4
20260507111551 69 14 0.0 0.9 0.00 0.00 0.00 26 1011.4
20260507111257 69 14 0.0 0.9 0.00 0.00 0.00 26 1011.4
20260507110527 70 14 0.0 1.7 0.00 0.00 0.00 26 1011.5
20260507110023 70 14 0.0 1.7 0.00 0.00 0.00 26 1011.4
20260507105732 70 293 0.0 0.9 0.00 0.00 0.00 25 1011.5
20260507104930 70 293 0.0 2.6 0.00 0.00 0.00 25 1011.5
20260507104423 70 292 0.0 2.6 0.00 0.00 0.00 25 1011.5
20260507103921 70 108 0.0 1.7 0.00 0.00 0.00 25 1011.5
20260507103420 70 142 0.0 1.7 0.00 0.00 0.00 25 1011.7
20260507102919 71 164 0.0 1.7 0.00 0.00 0.00 24 1011.7
20260507102637 71 164 0.0 0.9 0.00 0.00 0.00 24 1011.8
20260507101912 71 164 0.0 1.7 0.00 0.00 0.00 24 1011.9
20260507101351 71 164 0.0 1.7 0.00 0.00 0.00 24 1012.0
20260507100850 72 153 0.0 0.9 0.00 0.00 0.00 24 1012.1
20260507100346 72 153 0.0 1.7 0.00 0.00 0.00 24 1012.1
20260507095823 72 177 0.0 1.7 0.00 0.00 0.00 23 1012.1
20260507095320 72 194 0.0 2.6 0.00 0.00 0.00 23 1012.3
20260507094753 72 239 0.9 2.6 0.00 0.00 0.00 23 1012.3
20260507094246 72 202 0.9 2.6 0.00 0.00 0.00 23 1012.3
20260507093737 72 173 0.0 2.6 0.00 0.00 0.00 23 1012.3
20260507093230 73 271 0.0 1.7 0.00 0.00 0.00 23 1012.3
20260507092719 73 305 0.0 1.7 0.00 0.00 0.00 23 1012.4
20260507092212 73 305 0.0 1.7 0.00 0.00 0.00 23 1012.4
20260507091708 73 158 0.0 2.6 0.00 0.00 0.00 22 1012.5
20260507091202 73 205 0.9 3.5 0.00 0.00 0.00 23 1012.4
20260507090656 73 227 0.9 3.5 0.00 0.00 0.00 22 1012.4
20260507090146 73 215 0.9 2.6 0.00 0.00 0.00 23 1012.4
20260507085640 73 250 0.9 2.6 0.00 0.00 0.00 23 1012.3
20260507085133 73 296 0.9 2.6 0.00 0.00 0.00 23 1012.4
20260507084626 73 236 0.9 2.6 0.00 0.00 0.00 23 1012.3
20260507084121 72 281 0.9 4.3 0.00 0.00 0.00 23 1012.3
20260507083615 72 268 0.9 4.3 0.00 0.00 0.00 24 1012.3
20260507083335 72 222 0.9 3.5 0.00 0.00 0.00 24 1012.4
20260507082559 71 339 0.0 1.7 0.00 0.00 0.00 24 1012.3
20260507082103 71 351 0.0 1.7 0.00 0.00 0.00 24 1012.4
20260507081548 71 39 0.0 1.7 0.00 0.00 0.00 24 1012.5
20260507081024 72 9 0.0 0.9 0.00 0.00 0.00 25 1012.5
20260507080521 72 9 0.0 0.9 0.00 0.00 0.00 25 1012.6
20260507080242 72 5 0.0 0.9 0.00 0.00 0.00 25 1012.7
20260507075518 72 5 0.9 2.6 0.00 0.00 0.00 25 1012.7
20260507075239 72 5 0.9 2.6 0.00 0.00 0.00 26 1012.7
20260507074516 73 322 0.0 2.6 0.00 0.00 0.00 26 1012.7
20260507074240 73 144 0.0 0.9 0.00 0.00 0.00 24 1012.9
20260507073509 73 144 0.0 0.9 0.00 0.00 0.00 25 1012.9
20260507073000 73 153 0.0 0.9 0.00 0.00 0.00 24 1012.9
20260507072504 74 153 0.0 1.7 0.00 0.00 0.00 24 1012.9
20260507071948 74 153 0.0 1.7 0.00 0.00 0.00 23 1012.8
20260507071434 74 105 0.0 0.9 0.00 0.00 0.00 23 1012.9
20260507071140 74 105 0.0 0.9 0.00 0.00 0.00 23 1012.9
20260507070417 74 105 0.0 1.7 0.00 0.00 0.00 22 1012.9
20260507065916 75 105 0.0 2.6 0.00 0.00 0.00 22 1013.0
20260507065615 75 22 0.9 2.6 0.00 0.00 0.00 23 1012.9
20260507065258 75 341 1.7 5.2 0.00 0.00 0.00 22 1012.8
20260507064918 75 34 0.9 4.3 0.00 0.00 0.00 22 1012.9
20260507063822 75 320 0.9 5.2 0.00 0.00 0.00 22 1012.9
20260507063319 75 299 0.0 4.3 0.00 0.00 0.00 22 1012.9
20260507062836 75 342 0.0 2.6 0.00 0.00 0.00 22 1012.8
20260507062319 75 336 0.9 2.6 0.00 0.00 0.00 22 1012.8
20260507061819 75 13 0.0 2.6 0.00 0.00 0.00 22 1012.8
20260507061546 75 23 0.0 0.0 0.00 0.00 0.00 22 1012.8
20260507060816 75 35 0.0 0.0 0.00 0.00 0.00 22 1012.8
20260507060256 75 5 0.0 0.0 0.00 0.00 0.00 22 1012.9
20260507055723 75 15 0.0 1.7 0.00 0.00 0.00 22 1012.9
20260507055224 75 340 0.0 1.7 0.00 0.00 0.00 22 1012.9
20260507054710 75 19 0.0 0.0 0.00 0.00 0.00 22 1012.9
20260507054209 75 349 0.0 0.0 0.00 0.00 0.00 22 1012.9
20260507053656 75 345 0.0 0.0 0.00 0.00 0.00 22 1012.9
20260507053156 75 14 0.0 2.6 0.00 0.00 0.00 22 1012.9
20260507052859 75 332 0.0 2.6 0.00 0.00 0.00 22 1012.8
20260507052141 74 345 0.0 0.0 0.00 0.00 0.00 22 1012.9
20260507051641 74 355 0.0 0.0 0.00 0.00 0.00 23 1012.9
20260507051141 74 333 0.0 0.0 0.00 0.00 0.00 23 1012.9
20260507050626 75 315 0.0 0.0 0.00 0.00 0.00 24 1012.8
20260507050119 75 315 0.0 0.0 0.00 0.00 0.00 23 1012.9
20260507045618 75 312 0.0 0.0 0.00 0.00 0.00 24 1012.8
20260507045116 75 292 0.0 0.0 0.00 0.00 0.00 23 1012.8
20260507044610 75 294 0.0 0.0 0.00 0.00 0.00 23 1012.8
20260507044104 75 341 0.0 0.0 0.00 0.00 0.00 23 1012.8
20260507043537 75 341 0.0 0.0 0.00 0.00 0.00 23 1012.8
20260507043029 76 341 0.0 0.0 0.00 0.00 0.00 23 1012.7
20260507042525 76 334 0.0 0.0 0.00 0.00 0.00 23 1012.7
20260507042022 76 334 0.0 0.0 0.00 0.00 0.00 23 1012.7
20260507041518 76 334 0.0 0.0 0.00 0.00 0.00 23 1012.6
20260507041235 76 334 0.0 0.0 0.00 0.00 0.00 23 1012.6
20260507040513 76 340 0.0 0.0 0.00 0.00 0.00 22 1012.6
20260507040203 77 340 0.0 0.0 0.00 0.00 0.00 23 1012.6
20260507035435 77 340 0.0 0.0 0.00 0.00 0.00 22 1012.5
20260507034923 77 330 0.0 0.0 0.00 0.00 0.00 22 1012.6
20260507034421 78 330 0.0 0.0 0.00 0.00 0.00 22 1012.5
20260507033918 78 330 0.0 0.0 0.00 0.00 0.00 22 1012.5
20260507033420 78 330 0.0 0.0 0.00 0.00 0.00 22 1012.4
20260507032841 78 330 0.0 0.0 0.00 0.00 0.00 22 1012.3
20260507032328 78 330 0.0 0.0 0.00 0.00 0.00 22 1012.3
20260507031820 78 330 0.0 0.0 0.00 0.00 0.00 21 1012.3
20260507031253 79 332 0.0 0.0 0.00 0.00 0.00 21 1012.3
20260507030749 79 331 0.0 0.0 0.00 0.00 0.00 21 1012.1
20260507030232 79 332 0.0 0.0 0.00 0.00 0.00 21 1011.9
20260507025727 79 334 0.0 0.0 0.00 0.00 0.00 20 1011.9
20260507025226 79 323 0.0 0.0 0.00 0.00 0.00 20 1012.0
20260507024722 80 323 0.0 0.0 0.00 0.00 0.00 20 1012.0
20260507024224 80 321 0.0 0.0 0.00 0.00 0.00 20 1011.9
20260507023939 80 347 0.0 0.0 0.00 0.00 0.00 20 1011.8
20260507023218 80 337 0.0 0.0 0.00 0.00 0.00 20 1011.8
20260507022719 80 324 0.0 0.0 0.00 0.00 0.00 20 1011.7
20260507022208 80 347 0.9 2.6 0.00 0.00 0.00 19 1011.8
20260507021657 81 329 0.9 3.5 0.00 0.00 0.00 19 1011.8
20260507021353 81 304 0.9 3.5 0.00 0.00 0.00 19 1011.7
20260507020632 81 336 0.9 3.5 0.00 0.00 0.00 19 1011.7
20260507020129 82 297 0.9 2.6 0.00 0.00 0.00 19 1011.7
20260507015626 82 338 0.9 2.6 0.00 0.00 0.00 18 1011.7
20260507015128 82 355 1.7 4.3 0.00 0.00 0.00 18 1011.7
20260507014625 83 314 1.7 4.3 0.00 0.00 0.00 18 1011.7
20260507014125 83 294 0.9 3.5 0.00 0.00 0.00 18 1011.8
20260507013622 83 281 1.7 3.5 0.00 0.00 0.00 18 1011.7
20260507013126 83 242 2.6 5.2 0.00 0.00 0.00 18 1011.8
20260507012623 83 253 2.6 5.2 0.00 0.00 0.00 18 1011.7
20260507012132 84 243 2.6 5.2 0.00 0.00 0.00 17 1011.8
20260507011620 84 210 1.7 6.1 0.00 0.00 0.00 17 1011.8
20260507011121 84 291 0.9 6.1 0.00 0.00 0.00 17 1011.8
20260507010619 84 343 0.9 3.5 0.00 0.00 0.00 17 1011.8
20260507010123 84 269 1.7 4.3 0.00 0.00 0.00 17 1011.8
20260507005617 84 322 1.7 5.2 0.00 0.00 0.00 17 1011.8
20260507005111 84 355 1.7 5.2 0.00 0.00 0.00 17 1011.9
20260507004604 84 293 1.7 3.5 0.00 0.00 0.00 17 1011.8
20260507004055 85 283 0.9 4.3 0.00 0.00 0.00 17 1011.8
20260507003544 85 30 1.7 4.3 0.00 0.00 0.00 17 1011.8
20260507003039 84 229 1.7 6.1 0.00 0.00 0.00 17 1011.8
20260507002531 85 339 2.6 7.0 0.00 0.00 0.00 17 1011.8
20260507002026 85 263 2.6 4.3 0.00 0.00 0.00 17 1011.8
20260507001727 85 274 1.7 4.3 0.00 0.00 0.00 16 1011.9
20260507001612 85 26 2.6 4.3 0.00 0.00 0.00 16 1011.9
20260507000505 85 222 1.7 5.2 0.00 0.00 0.00 16 1012.0
20260506235956 85 274 1.7 6.1 0.00 0.00 0.00 16 1012.0
20260506235452 85 228 1.7 6.1 0.00 0.00 0.00 17 1011.9
20260506234946 85 184 1.7 5.2 0.00 0.00 0.00 16 1011.8
20260506234437 85 191 2.6 5.2 0.00 0.00 0.00 16 1011.9
20260506233924 85 247 1.7 5.2 0.00 0.00 0.00 16 1012.0
20260506233642 85 117 1.7 4.3 0.00 0.00 0.00 16 1012.0
20260506232916 85 237 2.6 5.2 0.00 0.00 0.00 16 1012.1
20260506232412 85 334 2.6 7.8 0.00 0.00 0.00 16 1012.3
20260506231905 85 248 2.6 7.8 0.00 0.00 0.00 16 1012.3
20260506231359 85 105 1.7 5.2 0.00 0.00 0.00 17 1012.3
20260506230851 85 124 1.7 3.5 0.00 0.00 0.00 16 1012.4
20260506230346 85 56 0.9 4.3 0.00 0.00 0.00 16 1012.5
20260506225837 85 67 0.9 4.3 0.00 0.00 0.00 15 1012.7
20260506225332 85 162 1.7 4.3 0.00 0.00 0.00 16 1012.6
20260506224824 85 84 1.7 4.3 0.00 0.00 0.00 15 1012.7
20260506224319 85 217 1.7 5.2 0.00 0.00 0.00 16 1012.7
20260506223812 85 285 2.6 5.2 0.00 0.00 0.00 16 1012.8
20260506223303 85 295 1.7 5.2 0.00 0.00 0.00 17 1012.9
20260506222758 85 292 1.7 4.3 0.00 0.00 0.00 17 1012.9
20260506222307 84 345 1.7 7.8 0.00 0.00 0.00 17 1012.8
20260506221753 84 336 3.5 9.6 0.00 0.00 0.00 17 1012.9
20260506221253 84 55 2.6 9.6 0.00 0.00 0.00 17 1012.9
20260506220751 84 11 2.6 4.3 0.00 0.00 0.00 17 1013.0
20260506220249 84 144 2.6 7.0 0.00 0.00 0.00 17 1013.1
20260506215739 84 347 3.5 8.7 0.00 0.00 0.00 17 1013.2
20260506215242 84 279 3.5 8.7 0.00 0.00 0.00 17 1013.2
20260506214959 84 209 2.6 7.0 0.00 0.00 0.00 18 1013.2
20260506214232 84 225 2.6 6.1 0.00 0.00 0.00 18 1013.4
20260506213730 83 72 2.6 6.1 0.00 0.00 0.00 18 1013.5
20260506213227 83 284 2.6 7.8 0.00 0.00 0.00 18 1013.5
20260506213000 83 257 3.5 7.8 0.00 0.00 0.00 18 1013.5
20260506212228 83 233 2.6 6.1 0.00 0.00 0.00 18 1013.6
20260506211949 83 284 2.6 7.0 0.00 0.00 0.00 18 1013.6
20260506211224 83 173 2.6 7.0 0.00 0.00 0.00 18 1013.8
20260506210723 84 279 2.6 7.0 0.00 0.00 0.00 19 1013.9
20260506210439 83 5 2.6 6.1 0.00 0.00 0.00 19 1013.9
20260506205724 83 355 3.5 8.7 0.00 0.00 0.00 19 1014.0
20260506205217 83 331 3.5 8.7 0.00 0.00 0.00 19 1014.0
20260506205205 83 279 3.5 7.0 0.00 0.00 0.00 19 1014.0
20260506204430 83 309 3.5 7.0 0.00 0.00 0.00 18 1014.2
20260506203715 83 275 2.6 7.0 0.00 0.00 0.00 18 1014.2
20260506203434 83 345 1.7 4.3 0.00 0.00 0.00 18 1014.2
20260506202711 83 333 1.7 6.1 0.00 0.00 0.00 18 1014.3
20260506202424 83 236 1.7 6.1 0.00 0.00 0.00 18 1014.3
20260506201707 82 73 1.7 5.2 0.00 0.00 0.00 19 1014.3
20260506201422 82 306 1.7 5.2 0.00 0.00 0.00 19 1014.4
20260506200703 81 282 2.6 6.1 0.00 0.00 0.00 20 1014.3
20260506200207 81 285 2.6 7.0 0.00 0.00 0.00 20 1014.4
20260506195709 82 292 1.7 7.0 0.00 0.00 0.00 19 1014.5
20260506195148 81 178 1.7 4.3 0.00 0.00 0.00 20 1014.4
20260506194857 80 295 2.6 7.0 0.00 0.00 0.00 20 1014.4
20260506194130 81 259 2.6 7.0 0.00 0.00 0.00 20 1014.5
20260506193629 81 274 2.6 4.3 0.00 0.00 0.00 19 1014.6
20260506193352 80 290 2.6 6.1 0.00 0.00 0.00 20 1014.5
20260506192624 80 288 3.5 7.0 0.00 0.00 0.00 21 1014.8
20260506192351 80 332 2.6 7.0 0.00 0.00 0.00 21 1014.8
20260506191907 80 59 2.6 5.2 0.00 0.00 0.00 21 1014.9
20260506191625 81 334 1.7 5.2 0.00 0.00 0.00 21 1014.8
20260506190851 80 296 2.6 6.1 0.00 0.00 0.00 21 1014.9
20260506190123 80 315 2.6 6.1 0.00 0.00 0.00 21 1015.0
20260506185613 80 246 2.6 7.0 0.00 0.00 0.00 21 1015.0
20260506185058 81 126 2.6 7.0 0.00 0.00 0.00 20 1015.1
20260506184552 81 171 2.6 6.1 0.00 0.00 0.00 21 1015.3
20260506184051 81 177 1.7 5.2 0.00 0.00 0.00 21 1015.5
20260506183550 81 338 1.7 6.1 0.00 0.00 0.00 21 1015.4
20260506183311 80 248 1.7 6.1 0.00 0.00 0.00 22 1015.5
20260506182550 80 11 2.6 8.7 0.00 0.00 0.00 22 1015.5
20260506182041 81 14 1.7 8.7 0.00 0.00 0.00 22 1015.6
20260506181540 81 5 1.7 3.5 0.00 0.00 0.00 22 1015.6
20260506181037 80 326 0.9 3.5 0.00 0.00 0.00 22 1015.6
20260506180805 80 133 0.9 3.5 0.00 0.00 0.00 23 1015.6
20260506180029 79 350 1.7 3.5 0.00 0.00 0.00 23 1015.6
20260506175515 79 337 1.7 4.3 0.00 0.00 0.00 23 1015.5
20260506175014 79 312 1.7 4.3 0.00 0.00 0.00 23 1015.6
20260506174741 79 281 1.7 4.3 0.00 0.00 0.00 25 1015.6
20260506174008 79 314 1.7 4.3 0.00 0.00 0.00 25 1015.6
20260506173507 79 255 1.7 4.3 0.00 0.00 0.00 24 1015.5
20260506173005 79 65 1.7 4.3 0.00 0.00 0.00 24 1015.6
20260506172507 79 5 2.6 5.2 0.00 0.00 0.00 25 1015.6
20260506172019 78 136 1.7 4.3 0.00 0.00 0.00 25 1015.5
20260506172009 79 67 1.7 5.2 0.00 0.00 0.00 25 1015.5
20260506171000 78 263 0.9 4.3 0.00 0.00 0.00 26 1015.4
20260506170444 77 237 0.9 2.6 0.00 0.00 0.00 26 1015.4
20260506165942 76 252 0.9 3.5 0.00 0.00 0.00 27 1015.4
20260506165438 76 278 1.7 5.2 0.00 0.00 0.00 26 1015.4
20260506164939 76 214 1.7 5.2 0.00 0.00 0.00 27 1015.4
20260506164435 76 121 0.9 5.2 0.00 0.00 0.00 27 1015.5
20260506163932 76 294 0.9 3.5 0.00 0.00 0.00 27 1015.3
20260506163424 75 346 1.7 4.3 0.00 0.00 0.00 28 1015.3
20260506162920 75 198 1.7 4.3 0.00 0.00 0.00 29 1015.2
20260506162414 75 286 1.7 4.3 0.00 0.00 0.00 29 1015.3
20260506161905 75 120 0.9 3.5 0.00 0.00 0.00 29 1015.2
20260506161400 74 100 0.9 4.3 0.00 0.00 0.00 29 1015.1
20260506160851 74 70 0.9 4.3 0.00 0.00 0.00 30 1015.0
20260506160607 73 268 0.9 4.3 0.00 0.00 0.00 31 1015.1
20260506155839 73 223 1.7 5.2 0.00 0.00 0.00 31 1015.1
20260506155557 72 128 2.6 5.2 0.00 0.00 0.00 31 1015.0
20260506154825 72 171 1.7 4.3 0.00 0.00 0.00 31 1014.9
20260506154319 72 132 1.7 5.2 0.00 0.00 0.00 32 1015.0
20260506153815 72 186 1.7 5.2 0.00 0.00 0.00 31 1015.0
20260506153311 72 155 1.7 4.3 0.00 0.00 0.00 31 1015.0
20260506152806 72 113 1.7 6.1 0.00 0.00 0.00 32 1014.9
20260506152259 72 150 1.7 6.1 0.00 0.00 0.00 32 1014.9
20260506151757 72 70 0.9 4.3 0.00 0.00 0.00 32 1015.0
20260506151521 71 132 0.9 4.3 0.00 0.00 0.00 32 1014.8
20260506150755 71 93 0.9 3.5 0.00 0.00 0.00 33 1014.9
20260506150237 71 143 0.0 1.7 0.00 0.00 0.00 33 1014.8
20260506145738 70 171 0.0 1.7 0.00 0.00 0.00 35 1014.6
20260506145221 69 153 0.0 1.7 0.00 0.00 0.00 36 1014.4
20260506144705 68 152 0.0 0.9 0.00 0.00 0.00 37 1014.3
20260506144208 67 121 0.0 0.9 0.00 0.00 0.00 40 1014.1
20260506143651 65 87 0.0 0.9 0.00 0.00 0.00 40 1014.0